Location: Fredericksburg
(30.2750°N, 98.8720°W)
Time: 22:58:17
(UTC-06:00)

Amateur Radio Satellites - All Passes

Search period start: 23 January 2017 22:28
Search period end: 24 January 2017 22:28
Location: Fredericksburg, 30.2750°N, 98.8720°W

Satellite Date Start Highest point End Downlink Frequencies (MHz)
Time Altitude Azimuth
BY70-1 23 Jan 22:37:27 22:40:14 38° 75° (ENE) 22:43:13 436.1900
HUMSAT D 23 Jan 22:52:17 22:55:25 21° 264° (W) 22:58:36 437.325/437.525
UNISAT 6 23 Jan 22:54:46 22:59:14 66° 284° (WNW) 23:03:47 437.425
PRISM 23 Jan 22:58:19 23:00:44 15° 291° (WNW) 23:03:08 437.425
VELOX 1 23 Jan 23:06:14 23:09:01 17° 69° (ENE) 23:11:48 145.980
TIGRISAT 23 Jan 23:06:58 23:11:20 51° 285° (WNW) 23:15:47 435.000
SPROUT 23 Jan 23:07:44 23:08:50 11° 68° (ENE) 23:09:56 437.525
ESTCUBE 1 23 Jan 23:09:53 23:14:18 58° 76° (ENE) 23:18:47 437.505/2401.250
PCSat 23 Jan 23:13:09 23:17:44 29° 107° (ESE) 23:22:20 145.827
JAS-2 23 Jan 23:14:43 23:22:11 61° 101° (E) 23:29:56 435.910
AO-85 23 Jan 23:17:57 23:21:40 45° 246° (WSW) 23:25:27 145.980
ANTELSAT 23 Jan 23:23:35 23:27:32 31° 287° (WNW) 23:31:33 437.575/2403.000
PHONESAT 2.4 23 Jan 23:23:52 23:26:01 53° 148° (SSE) 23:28:11 2401.200-2431.200
DX 1 23 Jan 23:26:32 23:28:19 12° 67° (ENE) 23:30:05 434.975-435.025
RS-15 23 Jan 23:30:05 23:41:48 83° 296° (WNW) 23:54:10 29.354- 29.394
QB50P1 23 Jan 23:35:16 23:38:47 25° 97° (E) 23:42:17 145.935-145.965
POLYITAN 1 23 Jan 23:40:31 23:44:14 30° 98° (E) 23:47:59 437.675
CUBEBUG 1 23 Jan 23:40:44 23:45:09 76° 76° (ENE) 23:49:32 437.445
QB50P2 23 Jan 23:41:49 23:45:40 33° 98° (E) 23:49:30 145.880/145.840
YUBILEINY 23 Jan 23:53:00 23:56:15 12° 68° (ENE) 23:59:29 435.215
POPSAT HIP 1 24 Jan 00:02:03 00:06:12 55° 100° (E) 00:10:21 437.405
AISAT 24 Jan 00:07:30 00:11:56 82° 256° (WSW) 00:16:23 437.250
DUCHIFAT 1 24 Jan 00:07:52 00:12:00 55° 100° (E) 00:16:08 145.980
NANOSAT C BR1 24 Jan 00:15:27 00:19:41 79° 102° (ESE) 00:23:54 145.865
AIST 1 24 Jan 00:21:04 00:23:45 16° 77° (ENE) 00:26:24
BUGSAT 1 24 Jan 00:26:52 00:30:23 28° 98° (E) 00:33:55 437.445
50 SAT 24 Jan 00:31:33 00:35:00 48° 260° (W) 00:38:28 437.505
Cosmos 2491 24 Jan 00:36:23 00:41:03 16° 81° (E) 00:45:43 435.465 / 435.565
SPROUT 24 Jan 00:40:13 00:44:18 46° 261° (W) 00:48:23 437.525
VELOX 1 24 Jan 00:41:08 00:45:09 33° 261° (W) 00:49:10 145.980
BEESAT 2 24 Jan 00:44:50 00:47:11 15° 54° (NE) 00:49:32 435.950
UKube-1 24 Jan 00:50:51 00:55:10 83° 259° (W) 00:59:30 .
PCSat 24 Jan 00:56:21 01:00:59 29° 301° (WNW) 01:05:39 145.827
PHONESAT 2.4 24 Jan 00:58:37 00:59:56 14° 342° (NNW) 01:01:14 2401.200-2431.200
DX 1 24 Jan 00:59:54 01:04:03 44° 260° (W) 01:08:13 434.975-435.025
JAS-2 24 Jan 01:00:58 01:06:37 24° 294° (WNW) 01:12:28 435.910
QB50P1 24 Jan 01:11:19 01:14:20 19° 289° (WNW) 01:17:20 145.935-145.965
POLYITAN 1 24 Jan 01:17:04 01:19:45 17° 290° (WNW) 01:22:26 437.675
QB50P2 24 Jan 01:18:45 01:21:07 15° 291° (WNW) 01:23:29 145.880/145.840
SWISSCUBE 24 Jan 01:20:18 01:21:43 11° 66° (ENE) 01:23:08 437.505
BEESAT 3 24 Jan 01:27:35 01:31:32 62° 245° (WSW) 01:35:27 437.485
Oscar 19 24 Jan 01:38:38 01:43:36 47° 100° (E) 01:48:30 437.125/150
YUBILEINY 24 Jan 01:45:22 01:54:12 85° 84° (E) 02:02:57 435.215
RS-15 24 Jan 01:47:41 01:56:23 22° 320° (NW) 02:05:21 29.354- 29.394
TISAT 1 24 Jan 01:54:01 01:58:03 49° 260° (W) 02:02:05 437.305
AIST 1 24 Jan 01:57:42 02:01:18 27° 269° (W) 02:04:51
CUSAT 1 24 Jan 01:57:43 02:00:55 16° 81° (E) 02:04:31 437.405
BUGSAT 1 24 Jan 02:02:59 02:05:28 16° 290° (WNW) 02:07:58 437.445
MOZHAYETS 4 24 Jan 02:16:15 02:17:01 10° 67° (ENE) 02:17:47
ITUPSAT 1 24 Jan 02:20:25 02:24:59 49° 74° (ENE) 02:29:34 437.325
BEESAT 2 24 Jan 02:21:22 02:25:03 35° 247° (WSW) 02:28:42 435.950
Gurwin Techsat 1B 24 Jan 02:24:27 02:29:46 72° 103° (ESE) 02:35:03 435.225
Cosmos 2504 24 Jan 02:25:07 02:32:22 83° 84° (E) 02:39:32 435.465 / 435.565
Cosmos 2491 24 Jan 02:28:05 02:36:46 79° 276° (W) 02:45:31 435.465 / 435.565
ITAMSAT 1 24 Jan 02:32:32 02:34:49 13° 94° (E) 02:37:06 435.822/435.867
AO-7 24 Jan 02:51:15 02:56:54 20° 96° (E) 03:02:30 29.400- 29.500
BEESAT 24 Jan 02:52:08 02:56:51 70° 258° (WSW) 03:01:36 436.000
SWISSCUBE 24 Jan 02:54:17 02:58:56 57° 259° (W) 03:03:38 437.505
M-CUBED/EXP-1 PRIME 24 Jan 03:14:35 03:18:06 24° 69° (ENE) 03:21:26 437.505
AIST 2 24 Jan 03:18:35 03:20:41 13° 52° (NE) 03:22:47 435.215
Oscar 19 24 Jan 03:19:27 03:22:27 16° 293° (WNW) 03:25:28 437.125/150
DANDE 24 Jan 03:27:34 03:30:46 25° 86° (E) 03:34:44 436.750
CUSAT 1 24 Jan 03:36:58 03:41:52 49° 283° (WNW) 03:48:12 437.405
YUBILEINY 24 Jan 03:45:38 03:49:45 14° 280° (W) 03:53:53 435.215
ISS 24 Jan 03:46:56 03:49:16 18° 38° (NE) 03:51:35 145.825
AUBIESAT-1 24 Jan 03:47:03 03:51:10 48° 71° (ENE) 03:55:03 437.475
MOZHAYETS 4 24 Jan 03:49:09 03:53:37 57° 260° (W) 03:58:08
KKS-1 24 Jan 03:59:14 04:03:32 51° 74° (ENE) 04:07:50 437.445
ITUPSAT 1 24 Jan 04:01:04 04:02:59 12° 266° (W) 04:04:54 437.325
Gurwin Techsat 1B 24 Jan 04:07:40 04:09:01 11° 296° (WNW) 04:10:21 435.225
PHONESAT 2.4 24 Jan 04:08:08 04:08:49 11° 15° (NNE) 04:09:28 2401.200-2431.200
ITAMSAT 1 24 Jan 04:09:25 04:14:30 55° 286° (WNW) 04:19:35 435.822/435.867
Cosmos 2504 24 Jan 04:23:10 04:24:38 11° 279° (W) 04:26:06 435.465 / 435.565
BRITE-PL 24 Jan 04:27:28 04:29:33 13° 92° (E) 04:31:35 437.365/2234.400
Cosmos 2491 24 Jan 04:33:04 04:34:52 11° 293° (WNW) 04:36:40 435.465 / 435.565
STARS 24 Jan 04:40:50 04:45:11 68° 76° (ENE) 04:49:31 437.465
AO-7 24 Jan 04:41:49 04:50:06 70° 289° (WNW) 04:58:19 29.400- 29.500
CUBESAT XI-V 24 Jan 04:45:40 04:50:20 79° 78° (ENE) 04:55:04 437.345
M-CUBED/EXP-1 PRIME 24 Jan 04:49:01 04:52:24 22° 258° (WSW) 04:55:39 437.505
AIST 2 24 Jan 04:55:18 04:59:21 45° 247° (WSW) 05:03:22 435.215
O/OREOS (USA 219) 24 Jan 05:03:22 05:07:04 26° 102° (ESE) 05:10:46 437.305
HORYU 2 24 Jan 05:06:37 05:09:14 15° 95° (E) 05:11:51 437.375
DANDE 24 Jan 05:10:56 05:13:35 17° 292° (WNW) 05:16:42 436.750
ISS 24 Jan 05:22:53 05:25:45 28° 231° (SW) 05:28:35 145.825
AUBIESAT-1 24 Jan 05:25:06 05:25:35 10° 260° (W) 05:26:04 437.475
KKS-1 24 Jan 05:40:04 05:40:17 10° 266° (W) 05:40:29 437.445
PHONESAT 2.4 24 Jan 05:40:38 05:42:50 71° 29° (NNE) 05:45:01 2401.200-2431.200
GOMX 1 24 Jan 05:46:19 05:50:18 39° 99° (E) 05:54:10 467.674
CUTE-I 24 Jan 05:50:49 05:54:24 18° 95° (E) 05:57:58 437.470
SO-50 24 Jan 06:03:44 06:07:27 23° 110° (ESE) 06:11:08 436.795
BRITE-PL 24 Jan 06:04:00 06:08:15 38° 287° (WNW) 06:12:14 437.365/2234.400
DOVE 4 24 Jan 06:04:29 06:07:39 21° 97° (E) 06:10:51 437.250
Cosmos 2499 24 Jan 06:26:14 06:32:47 40° 79° (E) 06:39:23 435.465 / 435.565
NOAA 15 24 Jan 06:27:59 06:33:05 46° 100° (E) 06:38:08 137.62
RS-15 24 Jan 06:29:10 06:37:03 18° 36° (NE) 06:44:44 29.354- 29.394
GONETS M04 24 Jan 06:33:32 06:41:43 40° 78° (ENE) 06:49:51
Cubesat XI-IV 24 Jan 06:34:02 06:39:14 51° 101° (E) 06:44:25 437.490
STRAND 1 24 Jan 06:34:52 06:39:14 30° 71° (ENE) 06:43:38 437.568
AO-7 24 Jan 06:39:13 06:41:20 11° 306° (NW) 06:43:28 29.400- 29.500
HORYU 2 24 Jan 06:41:45 06:45:49 35° 287° (WNW) 06:49:52 437.375
O/OREOS (USA 219) 24 Jan 06:43:01 06:46:22 20° 295° (WNW) 06:49:44 437.305
LilacSat-2 24 Jan 06:50:16 06:54:08 72° 282° (WNW) 06:57:58 437.200
CINEMA 3 24 Jan 07:02:13 07:05:32 22° 97° (E) 07:08:57 145.822/145.860
CUTE 1.7 + AOD 2 24 Jan 07:10:54 07:13:02 13° 94° (E) 07:15:08 437.475
NOAA 18 24 Jan 07:12:30 07:17:54 63° 102° (ESE) 07:23:18 137.9125
GOMX 1 24 Jan 07:26:31 07:27:58 12° 292° (WNW) 07:29:23 467.674
CUTE-I 24 Jan 07:29:31 07:34:31 42° 288° (WNW) 07:39:31 437.470
HO-68 24 Jan 07:34:25 07:40:56 37° 99° (E) 07:47:22 435.675
CANX-2 24 Jan 07:39:24 07:43:25 38° 99° (E) 07:47:22 2200.000
COMPASS 1 24 Jan 07:40:38 07:42:14 12° 93° (E) 07:43:50 437.405
SEEDS 24 Jan 07:42:03 07:45:17 21° 96° (E) 07:48:30 437.485
DOVE 4 24 Jan 07:42:08 07:45:13 21° 288° (WNW) 07:48:19 437.250
SO-50 24 Jan 07:43:36 07:47:44 29° 303° (WNW) 07:51:49 436.795
AAUSAT CUBESAT 2 24 Jan 07:48:12 07:49:02 10° 93° (E) 07:49:52 437.432
PRISM 24 Jan 08:08:33 08:09:20 10° 67° (ENE) 08:10:06 437.425
NOAA 15 24 Jan 08:09:07 08:12:24 17° 293° (WNW) 08:15:42 137.62
STRAND 1 24 Jan 08:14:19 08:18:20 23° 263° (W) 08:22:21 437.568
Cubesat XI-IV 24 Jan 08:15:45 08:18:49 16° 294° (WNW) 08:21:53 437.490
Cosmos 2499 24 Jan 08:19:57 08:25:32 26° 273° (W) 08:31:11 435.465 / 435.565
Oscar 11 24 Jan 08:26:46 08:28:23 12° 94° (E) 08:29:59 145.826/435.025
GONETS M04 24 Jan 08:30:31 08:38:15 35° 273° (W) 08:46:00
CINEMA 3 24 Jan 08:39:10 08:42:33 23° 287° (WNW) 08:46:01 145.822/145.860
RS-15 24 Jan 08:40:02 08:52:18 69° 60° (ENE) 09:03:59 29.354- 29.394
CUTE 1.7 + AOD 2 24 Jan 08:45:00 08:48:54 36° 286° (WNW) 08:52:48 437.475
NOAA 18 24 Jan 08:55:29 08:57:57 13° 295° (WNW) 09:00:26 137.9125
CUBEBUG 2 24 Jan 09:03:58 09:08:19 58° 284° (WNW) 09:12:49 437.445
FUNcube-1 24 Jan 09:06:26 09:10:43 44° 99° (E) 09:15:03 145.935
COMPASS 1 24 Jan 09:13:59 09:17:52 38° 286° (WNW) 09:21:43 437.405
CANX-2 24 Jan 09:16:46 09:18:51 13° 291° (WNW) 09:20:56 2200.000
SEEDS 24 Jan 09:17:31 09:20:50 22° 288° (WNW) 09:24:07 437.485
AAUSAT CUBESAT 2 24 Jan 09:20:42 09:24:38 42° 285° (WNW) 09:28:32 437.432
HO-68 24 Jan 09:22:11 09:28:26 34° 293° (WNW) 09:34:40 435.675
UWE-3 24 Jan 09:23:12 09:27:34 57° 284° (WNW) 09:32:02 435.000/436.395/437.385
ZACube-1 24 Jan 09:31:58 09:36:26 79° 281° (W) 09:40:58 437.345
PRISM 24 Jan 09:40:07 09:44:07 46° 260° (W) 09:48:09 437.425
UNISAT 6 24 Jan 09:47:55 09:52:01 50° 75° (ENE) 09:56:09 437.425
PCSat 24 Jan 09:48:59 09:54:24 68° 65° (ENE) 09:59:46 145.827
DELFI C3 24 Jan 09:59:05 10:02:57 51° 100° (E) 10:06:47 145.870
TIGRISAT 24 Jan 09:59:46 10:03:58 66° 77° (ENE) 10:08:10 435.000
Oscar 11 24 Jan 10:00:31 10:04:38 42° 285° (WNW) 10:08:43 145.826/435.025
ANTELSAT 24 Jan 10:16:08 10:20:21 70° 258° (WSW) 10:24:36 437.575/2403.000
POLYITAN 1 24 Jan 10:30:00 10:31:05 11° 68° (ENE) 10:32:10 437.675
QB50P2 24 Jan 10:30:44 10:32:28 12° 68° (ENE) 10:34:11 145.880/145.840
HUMSAT D 24 Jan 10:39:54 10:44:13 89° 126° (SE) 10:48:30 437.325/437.525
FUNcube-1 24 Jan 10:44:33 10:46:31 13° 291° (WNW) 10:48:31 145.935
POPSAT HIP 1 24 Jan 10:49:43 10:52:42 19° 71° (ENE) 10:55:41 437.405
RS-15 24 Jan 10:54:15 11:03:38 27° 258° (WSW) 11:12:45 29.354- 29.394
DUCHIFAT 1 24 Jan 10:54:54 10:57:50 19° 71° (ENE) 11:00:47 145.980
NANOSAT C BR1 24 Jan 11:02:15 11:05:42 26° 72° (ENE) 11:09:10 145.865
JAS-2 24 Jan 11:06:22 11:11:39 80° 258° (WSW) 11:17:28 435.910
ESTCUBE 1 24 Jan 11:09:01 11:12:15 19° 96° (E) 11:15:28 437.505/2401.250
BY70-1 24 Jan 11:16:53 11:19:47 42° 99° (E) 11:22:25 436.1900
PCSat 24 Jan 11:35:37 11:37:07 11° 257° (WSW) 11:38:37 145.827
CUBEBUG 1 24 Jan 11:35:48 11:39:06 21° 96° (E) 11:42:22 437.445
AO-85 24 Jan 11:47:30 11:50:38 17° 110° (ESE) 11:53:37 145.980
JUGNU 24 Jan 11:48:20 11:52:32 20° 167° (SSE) 11:56:45 437.505
QB50P1 24 Jan 11:56:41 12:00:46 53° 260° (W) 12:04:52 145.935-145.965
POLYITAN 1 24 Jan 12:02:26 12:06:25 44° 260° (W) 12:10:25 437.675
50 SAT 24 Jan 12:03:33 12:05:49 16° 96° (E) 12:08:02 437.505
AISAT 24 Jan 12:03:42 12:07:29 28° 98° (E) 12:11:15 437.250
QB50P2 24 Jan 12:03:55 12:07:51 39° 261° (W) 12:11:47 145.880/145.840
POPSAT HIP 1 24 Jan 12:24:51 12:28:16 24° 263° (W) 12:31:41 437.405
DUCHIFAT 1 24 Jan 12:29:54 12:33:18 24° 263° (W) 12:36:43 145.980
SPROUT 24 Jan 12:31:29 12:35:33 43° 99° (E) 12:39:36 437.525
VELOX 1 24 Jan 12:36:19 12:40:41 71° 101° (E) 12:45:02 145.980
CUSAT 1 24 Jan 12:37:58 12:40:53 12° 64° (ENE) 12:43:40 437.405
NANOSAT C BR1 24 Jan 12:38:31 12:41:21 18° 264° (W) 12:44:12 145.865
UKube-1 24 Jan 12:44:07 12:47:39 25° 98° (E) 12:51:10 .
ESTCUBE 1 24 Jan 12:45:08 12:48:59 28° 288° (WNW) 12:52:50 437.505/2401.250
AIST 1 24 Jan 12:45:14 12:47:11 13° 87° (E) 12:49:08
BUGSAT 1 24 Jan 12:45:26 12:49:21 48° 260° (W) 12:53:16 437.445
Cosmos 2491 24 Jan 12:45:57 12:54:06 40° 78° (ENE) 13:02:13 435.465 / 435.565
YUBILEINY 24 Jan 12:46:00 12:51:28 18° 82° (E) 12:56:54 435.215
Oscar 19 24 Jan 12:49:45 12:54:32 38° 72° (ENE) 12:59:19 437.125/150
DX 1 24 Jan 12:53:32 12:57:43 47° 100° (E) 13:01:52 434.975-435.025
Cosmos 2504 24 Jan 13:08:52 13:11:07 11° 81° (E) 13:13:21 435.465 / 435.565
CUBEBUG 1 24 Jan 13:11:49 13:15:14 23° 289° (WNW) 13:18:38 437.445
AO-85 24 Jan 13:26:17 13:30:48 38° 300° (WNW) 13:35:01 145.980
SRMSAT 24 Jan 13:27:03 13:30:21 15° 163° (SSE) 13:33:39 437.500
JUGNU 24 Jan 13:36:04 13:41:02 29° 177° (S) 13:46:01 437.505
50 SAT 24 Jan 13:36:19 13:38:53 19° 288° (WNW) 13:41:25 437.505
Gurwin Techsat 1B 24 Jan 13:39:41 13:44:55 65° 75° (ENE) 13:50:10 435.225
AISAT 24 Jan 13:40:42 13:43:41 18° 290° (WNW) 13:46:40 437.250
TISAT 1 24 Jan 13:43:25 13:47:17 36° 99° (E) 13:51:08 437.305
AO-7 24 Jan 13:45:20 13:50:24 18° 58° (ENE) 13:55:27 29.400- 29.500
ITAMSAT 1 24 Jan 13:46:03 13:47:45 12° 65° (ENE) 13:49:26 435.822/435.867
DANDE 24 Jan 14:09:10 14:16:07 29° 74° (ENE) 14:22:56 436.750
SPROUT 24 Jan 14:09:33 14:11:01 12° 292° (WNW) 14:12:29 437.525
CUSAT 1 24 Jan 14:16:12 14:24:04 83° 84° (E) 14:30:39 437.405
UKube-1 24 Jan 14:20:19 14:23:29 20° 290° (WNW) 14:26:38 .
AIST 1 24 Jan 14:20:22 14:24:22 35° 279° (W) 14:28:23
ITUPSAT 1 24 Jan 14:27:24 14:30:57 20° 96° (E) 14:34:28 437.325
Oscar 19 24 Jan 14:30:17 14:33:53 19° 265° (W) 14:37:30 437.125/150
DX 1 24 Jan 14:32:13 14:33:25 11° 293° (WNW) 14:34:38 434.975-435.025
YUBILEINY 24 Jan 14:38:28 14:47:15 72° 277° (W) 14:56:05 435.215
Cosmos 2491 24 Jan 14:42:59 14:50:39 35° 273° (W) 14:58:20 435.465 / 435.565
Cosmos 2504 24 Jan 14:54:38 15:03:23 83° 93° (E) 15:11:36 435.465 / 435.565
BEESAT 24 Jan 14:57:59 15:02:36 47° 100° (E) 15:07:12 436.000
SWISSCUBE 24 Jan 15:00:03 15:04:46 57° 101° (E) 15:09:28 437.505
BEESAT 3 24 Jan 15:11:54 15:15:44 89° 140° (SE) 15:19:40 437.485
SRMSAT 24 Jan 15:14:05 15:18:58 26° 172° (S) 15:23:51 437.500
O/OREOS (USA 219) 24 Jan 15:19:01 15:22:24 21° 64° (ENE) 15:25:48 437.305
TISAT 1 24 Jan 15:20:33 15:22:33 13° 291° (WNW) 15:24:31 437.305
ITAMSAT 1 24 Jan 15:21:28 15:26:35 65° 258° (WSW) 15:31:43 435.822/435.867
Gurwin Techsat 1B 24 Jan 15:23:45 15:25:10 11° 267° (W) 15:26:36 435.225
JUGNU 24 Jan 15:24:42 15:29:34 27° 187° (S) 15:34:27 437.505
BRITE-PL 24 Jan 15:32:17 15:34:38 13° 66° (ENE) 15:36:59 437.365/2234.400
AO-7 24 Jan 15:33:45 15:42:06 84° 254° (WSW) 15:50:32 29.400- 29.500
MOZHAYETS 4 24 Jan 15:49:45 15:54:16 52° 100° (E) 15:58:47
DANDE 24 Jan 15:51:02 15:59:02 54° 268° (W) 16:06:46 436.750
KKS-1 24 Jan 15:57:08 15:59:46 15° 95° (E) 16:02:23 437.445
CUSAT 1 24 Jan 16:01:13 16:04:40 14° 280° (W) 16:07:54 437.405
ITUPSAT 1 24 Jan 16:04:31 16:08:43 31° 289° (WNW) 16:12:55 437.325
BEESAT 2 24 Jan 16:06:59 16:10:47 49° 300° (WNW) 16:14:38 435.950
SO-50 24 Jan 16:19:49 16:24:10 50° 60° (ENE) 16:28:29 436.795
M-CUBED/EXP-1 PRIME 24 Jan 16:32:42 16:35:42 34° 104° (ESE) 16:38:42 437.505
STARS 24 Jan 16:36:45 16:39:53 19° 96° (E) 16:42:59 437.465
BEESAT 24 Jan 16:37:32 16:39:55 14° 293° (WNW) 16:42:19 436.000
SWISSCUBE 24 Jan 16:40:26 16:42:00 12° 294° (WNW) 16:43:35 437.505
GOMX 1 24 Jan 16:47:57 16:52:29 28° 72° (ENE) 16:56:50 467.674
CUBESAT XI-V 24 Jan 16:48:25 16:52:32 30° 97° (E) 16:56:35 437.345
Cosmos 2504 24 Jan 16:52:48 16:57:22 15° 288° (WNW) 17:01:51 435.465 / 435.565
O/OREOS (USA 219) 24 Jan 16:57:56 17:01:43 27° 258° (WSW) 17:05:30 437.305
SRMSAT 24 Jan 17:02:31 17:07:41 30° 182° (S) 17:12:51 437.500
AUBIESAT-1 24 Jan 17:05:01 17:08:18 89° 274° (W) 17:11:38 437.475
DOVE 4 24 Jan 17:05:07 17:07:42 14° 70° (ENE) 17:10:13 437.250
BRITE-PL 24 Jan 17:06:46 17:12:26 72° 259° (W) 17:18:04 437.365/2234.400
CUTE-I 24 Jan 17:07:32 17:10:56 18° 67° (ENE) 17:14:20 437.470
JUGNU 24 Jan 17:14:24 17:18:02 17° 196° (SSW) 17:21:41 437.505
LilacSat-2 24 Jan 17:27:04 17:30:01 22° 72° (ENE) 17:32:59 437.200
MOZHAYETS 4 24 Jan 17:29:15 17:30:55 12° 293° (WNW) 17:32:36
KKS-1 24 Jan 17:32:22 17:36:20 34° 288° (WNW) 17:40:19 437.445
AO-7 24 Jan 17:33:05 17:35:39 12° 267° (W) 17:38:15 29.400- 29.500
HORYU 2 24 Jan 17:33:21 17:37:44 80° 258° (WSW) 17:42:10 437.375
NOAA 15 24 Jan 17:42:19 17:47:16 42° 72° (ENE) 17:52:14 137.62
Cubesat XI-IV 24 Jan 17:50:21 17:55:25 48° 73° (ENE) 18:00:30 437.490
HO-68 24 Jan 17:59:38 18:03:24 15° 61° (ENE) 18:07:10 435.675
SO-50 24 Jan 18:02:45 18:04:07 11° 253° (WSW) 18:05:28 436.795
STARS 24 Jan 18:12:28 18:16:09 27° 288° (WNW) 18:19:49 437.465
GOMX 1 24 Jan 18:25:51 18:30:23 27° 263° (W) 18:34:45 467.674
CUBESAT XI-V 24 Jan 18:26:19 18:29:38 20° 290° (WNW) 18:32:55 437.345
CANX-2 24 Jan 18:28:06 18:30:12 14° 69° (ENE) 18:32:18 2200.000
NOAA 18 24 Jan 18:32:59 18:38:26 69° 75° (ENE) 18:43:53 137.9125
DOVE 4 24 Jan 18:40:14 18:45:01 46° 260° (W) 18:49:34 437.250
CUTE-I 24 Jan 18:45:31 18:50:33 45° 260° (W) 18:55:37 437.470
AIST 2 24 Jan 18:46:56 18:50:54 52° 299° (WNW) 18:54:58 435.215
SRMSAT 24 Jan 18:51:47 18:56:22 23° 192° (SSW) 19:00:58 437.500
STRAND 1 24 Jan 18:51:56 18:55:08 16° 95° (E) 18:58:19 437.568
Cosmos 2499 24 Jan 18:54:58 19:02:45 42° 90° (E) 19:10:01 435.465 / 435.565
LilacSat-2 24 Jan 19:01:47 19:04:13 16° 265° (W) 19:06:39 437.200
NOAA 15 24 Jan 19:23:38 19:27:07 18° 265° (W) 19:30:38 137.62
GONETS M04 24 Jan 19:26:51 19:35:14 56° 90° (E) 19:43:40
CUTE 1.7 + AOD 2 24 Jan 19:31:06 19:35:19 73° 77° (ENE) 19:39:35 437.475
Cubesat XI-IV 24 Jan 19:32:33 19:35:38 16° 266° (W) 19:38:43 437.490
CINEMA 3 24 Jan 19:34:15 19:38:33 50° 260° (W) 19:42:41 145.822/145.860
HO-68 24 Jan 19:43:00 19:50:12 82° 256° (WSW) 19:57:26 435.675
CUBEBUG 2 24 Jan 19:56:23 20:00:26 53° 76° (ENE) 20:04:28 437.445
FUNcube-1 24 Jan 19:57:45 20:00:15 16° 70° (ENE) 20:02:47 145.935
COMPASS 1 24 Jan 19:58:10 20:02:18 62° 77° (ENE) 20:06:27 437.405
CANX-2 24 Jan 20:01:44 20:05:39 37° 262° (W) 20:09:38 2200.000
SEEDS 24 Jan 20:02:09 20:06:20 71° 259° (W) 20:10:35 437.485
AAUSAT CUBESAT 2 24 Jan 20:04:28 20:08:31 54° 76° (ENE) 20:12:37 437.432
UWE-3 24 Jan 20:14:28 20:18:29 53° 75° (ENE) 20:22:31 435.000/436.395/437.385
NOAA 18 24 Jan 20:18:04 20:19:25 11° 267° (W) 20:20:46 137.9125
ISS 24 Jan 20:21:50 20:25:04 62° 315° (NW) 20:28:18 145.825
ZACube-1 24 Jan 20:22:19 20:26:05 36° 74° (ENE) 20:29:54 437.345
STRAND 1 24 Jan 20:29:34 20:34:24 43° 287° (WNW) 20:39:15 437.568
DELFI C3 24 Jan 20:40:29 20:42:33 14° 70° (ENE) 20:44:38 145.870
SRMSAT 24 Jan 20:43:14 20:44:59 11° 200° (SSW) 20:46:43 437.500
Cosmos 2499 24 Jan 20:48:35 20:55:48 31° 282° (WNW) 21:02:37 435.465 / 435.565
Oscar 11 24 Jan 20:48:55 20:53:10 68° 77° (ENE) 20:57:29 145.826/435.025
RS-15 24 Jan 20:50:53 20:55:27 13° 97° (E) 21:00:04 29.354- 29.394
GONETS M04 24 Jan 21:25:34 21:32:21 25° 286° (WNW) 21:39:13
HUMSAT D 24 Jan 21:25:43 21:29:11 27° 72° (ENE) 21:32:40 437.325/437.525
PRISM 24 Jan 21:27:16 21:31:00 34° 99° (E) 21:34:41 437.425
FUNcube-1 24 Jan 21:32:38 21:36:13 28° 263° (W) 21:39:48 145.935
UNISAT 6 24 Jan 21:45:52 21:48:56 18° 96° (E) 21:52:01 437.425
TIGRISAT 24 Jan 21:57:12 22:00:45 22° 97° (E) 22:04:20 435.000
ZACube-1 24 Jan 22:00:48 22:02:28 12° 266° (W) 22:04:07 437.345
AO-85 24 Jan 22:03:14 22:06:42 30° 59° (ENE) 22:10:11 145.980
ANTELSAT 24 Jan 22:13:10 22:17:23 37° 99° (E) 22:21:39 437.575/2403.000
DELFI C3 24 Jan 22:13:27 22:17:01 31° 262° (W) 22:20:37 145.870
